Change the Weather History Date:

Sunday, November 25, 2012

  Actual Average Record
Temperature  
Mean Temperature 38 °F 31 °F  
Max Temperature 55 °F 43 °F 67 °F (1910)
Min Temperature 20 °F 20 °F -8 °F (1931)
Degree Days  
Heating Degree Days 27 34  
Month to date heating degree days 584 708  
Since 1 July heating degree days 1122 1352  
Cooling Degree Days 0 0  
Month to date cooling degree days 0 0  
Year to date cooling degree days 809 541  
Moisture  
Dew Point 18 °F    
Average Humidity 55    
Maximum Humidity 84    
Minimum Humidity 26    
Precipitation  
Precipitation 0.00 in 0.03 in 0.28 in (1921)
Month to date precipitation 0.48 0.96  
Year to date precipitation 7.28 13.32  
Sea Level Pressure  
Sea Level Pressure 30.07 in    
Wind  
Wind Speed 2 mph (SSW)    
Max Wind Speed 17 mph    
Max Gust Speed 23 mph    
Visibility 10 miles    
Events      
T = Trace of Precipitation, MM = Missing Value Source: NWS Daily Summary

Daily Weather History Graph

Daily Weather History Graph

Search for Another Location

Airport or City:

Trip Planner

Search our weather history database for the weather conditions in past years. The results will help you decide how hot, cold, wet, or windy it might be!

Date:

Astronomy

Nov. 25, 2012 Rise Set
Actual Time 7:06 AM MST 4:49 PM MST
Civil Twilight 6:37 AM MST 5:18 PM MST
Nautical Twilight 6:04 AM MST 5:51 PM MST
Astronomical Twilight 5:31 AM MST 6:24 PM MST
Moon 3:07 PM MST (11/25) 4:23 AM MST (11/25)
Length of Visible Light 10h 41m
Length of Day
9h 42m
Waxing Gibbous, 93% of the Moon is Illuminated
Nov 25
Waxing Gibbous
Nov 28
Full
Dec 6
Last Quarter
Dec 13
New
Dec 19
First Quarter

Hourly Weather History & Observations

Time (MST) Temp. Windchill Dew Point Humidity Pressure Visibility Wind Dir Wind Speed Gust Speed Precip Events Conditions
12:53 AM 25.0 °F - 18.0 °F 75% 30.16 in 10.0 mi Calm Calm - N/A   Clear
1:53 AM 24.1 °F - 18.0 °F 77% 30.14 in 10.0 mi Calm Calm - N/A   Clear
2:53 AM 23.0 °F - 17.1 °F 78% 30.13 in 10.0 mi Calm Calm - N/A   Clear
3:53 AM 21.0 °F - 16.0 °F 81% 30.12 in 10.0 mi Calm Calm - N/A   Clear
4:53 AM 23.0 °F - 17.1 °F 78% 30.14 in 10.0 mi Calm Calm - N/A   Clear
5:53 AM 19.9 °F - 15.1 °F 81% 30.17 in 10.0 mi Calm Calm - N/A   Clear
6:53 AM 19.9 °F - 15.1 °F 81% 30.18 in 10.0 mi Calm Calm - N/A   Clear
7:53 AM 23.0 °F - 18.0 °F 81% 30.18 in 10.0 mi Calm Calm - N/A   Clear
8:53 AM 28.0 °F - 19.0 °F 69% 30.17 in 10.0 mi Calm Calm - N/A   Clear
9:53 AM 32.0 °F - 19.9 °F 61% 30.15 in 10.0 mi Calm Calm - N/A   Clear
10:53 AM 39.0 °F - 18.0 °F 43% 30.10 in 10.0 mi Calm Calm - N/A   Clear
11:53 AM 44.1 °F - 18.0 °F 35% 30.05 in 10.0 mi Calm Calm - N/A   Clear
12:53 PM 46.9 °F - 19.0 °F 33% 30.00 in 10.0 mi WSW 5.8 mph - N/A   Clear
1:53 PM 51.1 °F - 19.0 °F 28% 29.96 in 10.0 mi Calm Calm - N/A   Clear
2:53 PM 53.1 °F - 19.0 °F 26% 29.94 in 10.0 mi East 4.6 mph - N/A   Clear
3:53 PM 54.0 °F - 19.0 °F 25% 29.94 in 10.0 mi West 15.0 mph - N/A   Clear
4:53 PM 50.0 °F - 19.0 °F 29% 29.94 in 10.0 mi WSW 13.8 mph - N/A   Clear
5:53 PM 48.0 °F - 19.0 °F 32% 29.99 in 10.0 mi SSE 3.5 mph - N/A   Partly Cloudy
6:53 PM 46.9 °F - 19.0 °F 33% 30.01 in 10.0 mi Calm Calm - N/A   Partly Cloudy
7:53 PM 45.0 °F 42.6 °F 19.0 °F 36% 30.02 in 10.0 mi SSW 4.6 mph - N/A   Overcast
8:53 PM 45.0 °F - 18.0 °F 34% 30.01 in 10.0 mi Calm Calm - N/A   Overcast
9:53 PM 39.9 °F - 21.0 °F 47% 30.03 in 10.0 mi Calm Calm - N/A   Overcast
10:53 PM 37.0 °F - 19.0 °F 48% 30.03 in 10.0 mi Calm Calm - N/A   Clear
11:53 PM 33.1 °F - 19.0 °F 56% 30.05 in 10.0 mi Calm Calm - N/A   Clear